sat.trackr.live / text

‹ back to catalog

SNIPE 2

NORAD 56745 · 2023-072C

PAYLOAD ACTIVE UNKNOWN

§ Identity

Operator
Country
SKOR
Launch date
2023-05-25
Launch site
NSC
Launch vehicle
Mass (kg)
RCS (m²)

External: N2YO · Heavens-Above · Gunter

§ Orbital elements

Epoch: 2026-05-25T05:14:05.638848Z

Period
93.17 min
Inclination
97.5277°
Eccentricity
0.0006214
Mean motion
15.45541691 rev/d
Perigee alt
425.6 km
Apogee alt
434.0 km
Semi-major
6,807.9 km
B*
5.4957e-4
RAAN
353.3991°
Arg perigee
85.3028°
Mean anomaly
274.8930°
Rev number
16,669

§ Raw data

SNIPE 21 56745U 23072C   26145.21812082  .00026371  00000+0  54957-3 0  99942 56745  97.5277 353.3991 0006214  85.3028 274.8930 15.45541691166690

JSON: /api/v1/satellites/56745 · /tle

For live sub-satellite position, see the globe view (requires WebGL).

§ Visibility from observer

Set your observer location to see the next 7 days of passes ≥ 10°. The values pass through the URL so the page stays shareable.

No JS? Fill the form by hand. The geolocation button needs JavaScript.

§ Radio — SatNOGS DB

ModeDescriptionDownlinkUplink
MSK AX.100 Mode 5 Mode U - MSK4k8 436.000 MHz

1 transmitter · refreshed weekly from db.satnogs.org